Simultaneous Nadir Overpasses (SNOs) Predictions

Prediction of SNOs between NPP and PACE Satellite Orbit:

Table of predicted SNOs for the next 14.0 days since TLE Epoch: 4/26/2025
Index Date (NPP) Time (NPP) Lat,Lon (NPP) SZA (NPP ) Date (PACE) Time (PACE) Lat,Lon (PACE) SZA (PACE ) Distance(km) Time Diff (sec)
1 04/27/2025 02:29:53 -80.03, -76.57 111.63 04/27/2025 02:30:57 -80.02, -76.45 111.68 2.41 64
2 04/27/2025 03:20:30 79.78, 93.18 67.91 04/27/2025 03:20:02 79.79, 93.06 67.94 2.46 28
3 04/29/2025 07:47:03 79.91, 25.38 67.44 04/29/2025 07:47:17 79.91, 25.38 67.44 0.17 14
4 05/01/2025 12:13:34 79.97, -41.88 66.89 05/01/2025 12:14:30 79.97, -41.94 66.88 1.31 56
5 05/01/2025 13:04:13 -79.79, 127.17 113.45 05/01/2025 13:03:35 -79.80, 127.14 113.43 0.66 38
6 05/03/2025 17:30:46 -79.92, 59.33 113.87 05/03/2025 17:30:49 -79.92, 59.40 113.88 1.42 3
7 05/05/2025 21:57:16 -79.96, -7.68 114.42 05/05/2025 21:58:00 -79.96, -7.69 114.44 0.22 44
8 05/05/2025 22:47:55 79.78, 161.34 65.25 05/05/2025 22:47:06 79.78, 161.36 65.27 0.37 49



Historial Predications of SNOs between NPP and PACE
